2020-08-19 00:01:56 r, 20.97m,0000000001Hz,0001317765c,0000002.860s, 033.1C,00002191
2020-08-19 00:11:56 r, 20.98m,0000000001Hz,0001331461c,0000002.889s, 032.8C,00002191
2020-08-19 00:21:56 r, 21.00m,0000000000Hz,0001347649c,0000002.925s, 032.5C,00002191
2020-08-19 00:31:58 r, 21.00m,0000000001Hz,0001348690c,0000002.927s, 032.5C,00002191
2020-08-19 00:41:56 r, 21.00m,0000000000Hz,0001358257c,0000002.948s, 032.8C,00002191
2020-08-19 00:51:58 r, 21.02m,0000000001Hz,0001369127c,0000002.971s, 032.5C,00002191
2020-08-19 01:01:56 r, 21.02m,0000000001Hz,0001378030c,0000002.991s, 032.5C,00002191
2020-08-19 01:11:56 r, 21.03m,0000000001Hz,0001384593c,0000003.005s, 032.2C,00002191
2020-08-19 01:21:56 r, 21.03m,0000000000Hz,0001390508c,0000003.018s, 032.2C,00002191
2020-08-19 01:31:57 r, 21.03m,0000000001Hz,0001387638c,0000003.011s, 031.9C,00002191
2020-08-19 01:41:56 r, 21.02m,0000000000Hz,0001381759c,0000002.999s, 031.5C,00002191
2020-08-19 01:51:57 r, 21.02m,0000000000Hz,0001380777c,0000002.996s, 031.5C,00002191
2020-08-19 02:01:56 r, 21.04m,0000000000Hz,0001398408c,0000003.035s, 031.2C,00002191
2020-08-19 02:11:56 r, 21.04m,0000000000Hz,0001403374c,0000003.046s, 031.2C,00002191
2020-08-19 02:21:56 r, 21.06m,0000000000Hz,0001418847c,0000003.079s, 031.5C,00002191
2020-08-19 02:31:58 r, 21.06m,0000000000Hz,0001432774c,0000003.109s, 031.5C,00002191
2020-08-19 02:41:56 r, 21.06m,0000000000Hz,0001429580c,0000003.102s, 031.5C,00002191
2020-08-19 02:51:58 r, 21.08m,0000000001Hz,0001448390c,0000003.143s, 031.5C,00002191
2020-08-19 03:01:56 r, 21.08m,0000000000Hz,0001456726c,0000003.161s, 031.5C,00002191
2020-08-19 03:11:56 r, 21.08m,0000000000Hz,0001451853c,0000003.151s, 031.5C,00002191
2020-08-19 03:21:58 r, 21.08m,0000000000Hz,0001444944c,0000003.136s, 031.5C,00002191
2020-08-19 03:31:56 r, 21.07m,0000000000Hz,0001433961c,0000003.112s, 031.5C,00002191
2020-08-19 03:41:56 r, 21.06m,0000000000Hz,0001418111c,0000003.077s, 031.5C,00002191
2020-08-19 03:51:56 r, 21.05m,0000000001Hz,0001410689c,0000003.061s, 031.5C,00002191
2020-08-19 04:01:57 r, 21.05m,0000000000Hz,0001411509c,0000003.063s, 031.2C,00002191
2020-08-19 04:11:56 r, 21.05m,0000000000Hz,0001409068c,0000003.058s, 031.2C,00002191
2020-08-19 04:21:57 r, 21.04m,0000000001Hz,0001406175c,0000003.052s, 031.2C,00002191
2020-08-19 04:31:56 r, 21.03m,0000000001Hz,0001395935c,0000003.029s, 030.9C,00002191
2020-08-19 04:41:56 r, 20.96m,0000000001Hz,0001316238c,0000002.856s, 030.9C,00002191
2020-08-19 04:51:58 r, 20.78m,0000000000Hz,0001106771c,0000002.402s, 030.9C,00002191
2020-08-19 05:01:56 r, 20.30m,0000000001Hz,0000719259c,0000001.561s, 030.6C,00002191
2020-08-19 05:11:56 r, 19.46m,0000000001Hz,0000333943c,0000000.725s, 030.6C,00002191
2020-08-19 05:21:58 r, 18.34m,0000000004Hz,0000119000c,0000000.258s, 030.6C,00002191
2020-08-19 05:31:57 r, 17.02m,0000000013Hz,0000035426c,0000000.077s, 030.6C,00002191
2020-08-19 05:41:56 r, 15.35m,0000000061Hz,0000007546c,0000000.016s, 030.2C,00002191
2020-08-19 05:51:57 r, 13.34m,0000000388Hz,0000000000c,0000000.000s, 030.2C,00002191
2020-08-19 06:01:57 r, 11.47m,0000002190Hz,0000000000c,0000000.000s, 030.2C,00002191
2020-08-19 06:11:56 r, 09.75m,0000010710Hz,0000000000c,0000000.000s, 029.9C,00002191
2020-08-19 06:21:57 r, 08.47m,0000034722Hz,0000000000c,0000000.000s, 029.9C,00002191
2020-08-19 06:31:56 r, 07.54m,0000081607Hz,0000000000c,0000000.000s, 029.6C,00002191
2020-08-19 06:41:56 r, 06.82m,0000158390Hz,0000000000c,0000000.000s, 029.9C,00002191
2020-08-19 06:51:57 r, 06.24m,0000271219Hz,0000000000c,0000000.000s, 029.6C,00002191
2020-08-19 07:01:58 r, 05.90m,0000367785Hz,0000000000c,0000000.000s, 029.9C,00002191
2020-08-19 07:11:56 r, 00.00m,0000463018Hz,0000000000c,0000000.000s, 030.6C,00002191
2020-08-19 07:21:58 r, 00.00m,0000567282Hz,0000000000c,0000000.000s, 031.2C,00002191
2020-08-19 07:31:57 r, 00.00m,0000595877Hz,0000000000c,0000000.000s, 032.2C,00002191
2020-08-19 07:41:56 r, 00.00m,0000595771Hz,0000000000c,0000000.000s, 032.8C,00002191
2020-08-19 07:51:58 r, 00.00m,0000595763Hz,0000000000c,0000000.000s, 033.8C,00002191
2020-08-19 08:01:57 r, 00.00m,0000595663Hz,0000000000c,0000000.000s, 034.8C,00002191
2020-08-19 08:11:56 r, 00.00m,0000595491Hz,0000000000c,0000000.000s, 035.4C,00002191
2020-08-19 08:21:57 r, 00.00m,0000595387Hz,0000000000c,0000000.000s, 036.4C,00002191
2020-08-19 08:31:58 r, 00.00m,0000595206Hz,0000000000c,0000000.000s, 037.3C,00002191
2020-08-19 08:41:56 r, 00.00m,0000595200Hz,0000000000c,0000000.000s, 038.3C,00002191
2020-08-19 08:51:57 r, 00.00m,0000595180Hz,0000000000c,0000000.000s, 039.3C,00002191
2020-08-19 09:01:57 r, 00.00m,0000594917Hz,0000000000c,0000000.000s, 040.2C,00002191
2020-08-19 09:11:56 r, 00.00m,0000594884Hz,0000000000c,0000000.000s, 041.2C,00002191
2020-08-19 09:21:58 r, 00.00m,0000594704Hz,0000000000c,0000000.000s, 041.5C,00002191
2020-08-19 09:31:57 r, 00.00m,0000594512Hz,0000000000c,0000000.000s, 042.2C,00002191
2020-08-19 09:41:56 r, 00.00m,0000594443Hz,0000000000c,0000000.000s, 042.8C,00002191
2020-08-19 09:51:58 r, 00.00m,0000594420Hz,0000000000c,0000000.000s, 043.8C,00002191
2020-08-19 10:01:57 r, 00.00m,0000594253Hz,0000000000c,0000000.000s, 044.4C,00002191
2020-08-19 10:11:56 r, 00.00m,0000594140Hz,0000000000c,0000000.000s, 044.8C,00002191
2020-08-19 10:21:57 r, 00.00m,0000594001Hz,0000000000c,0000000.000s, 045.7C,00002191
2020-08-19 10:31:57 r, 00.00m,0000593957Hz,0000000000c,0000000.000s, 046.4C,00002191
2020-08-19 10:41:56 r, 00.00m,0000593834Hz,0000000000c,0000000.000s, 047.3C,00002191
2020-08-19 10:51:57 r, 00.00m,0000593668Hz,0000000000c,0000000.000s, 048.0C,00002191
2020-08-19 11:01:57 r, 00.00m,0000593579Hz,0000000000c,0000000.000s, 048.6C,00002191
2020-08-19 11:11:56 r, 00.00m,0000593498Hz,0000000000c,0000000.000s, 049.3C,00002191
2020-08-19 11:21:58 r, 00.00m,0000593458Hz,0000000000c,0000000.000s, 049.6C,00002191
2020-08-19 11:31:57 r, 00.00m,0000593777Hz,0000000000c,0000000.000s, 048.0C,00002191
2020-08-19 11:41:56 r, 00.00m,0000594082Hz,0000000000c,0000000.000s, 046.0C,00002191
2020-08-19 11:51:58 r, 00.00m,0000593943Hz,0000000000c,0000000.000s, 046.4C,00002191
2020-08-19 12:01:57 r, 00.00m,0000593747Hz,0000000000c,0000000.000s, 047.7C,00002191
2020-08-19 12:11:56 r, 00.00m,0000593428Hz,0000000000c,0000000.000s, 049.3C,00002191
2020-08-19 12:21:57 r, 00.00m,0000593413Hz,0000000000c,0000000.000s, 050.2C,00002191
2020-08-19 12:31:57 r, 00.00m,0000593340Hz,0000000000c,0000000.000s, 050.2C,00002191
2020-08-19 12:41:56 r, 00.00m,0000593498Hz,0000000000c,0000000.000s, 049.9C,00002191
2020-08-19 12:51:58 r, 00.00m,0000593647Hz,0000000000c,0000000.000s, 048.9C,00002191
2020-08-19 13:01:57 r, 00.00m,0000593096Hz,0000000000c,0000000.000s, 051.2C,00002191
2020-08-19 13:11:56 r, 00.00m,0000592645Hz,0000000000c,0000000.000s, 054.1C,00002191
2020-08-19 13:21:57 r, 00.00m,0000592507Hz,0000000000c,0000000.000s, 055.7C,00002191
2020-08-19 13:31:59 r, 00.00m,0000592359Hz,0000000000c,0000000.000s, 056.4C,00002191
2020-08-19 13:41:56 r, 00.00m,0000592403Hz,0000000000c,0000000.000s, 056.4C,00002191
2020-08-19 13:51:59 r, 00.00m,0000592302Hz,0000000000c,0000000.000s, 056.7C,00002191
2020-08-19 14:01:57 r, 00.00m,0000592209Hz,0000000000c,0000000.000s, 057.0C,00002191
2020-08-19 14:11:59 r, 00.00m,0000592231Hz,0000000000c,0000000.000s, 057.3C,00002191
2020-08-19 14:21:56 r, 00.00m,0000592081Hz,0000000000c,0000000.000s, 057.6C,00002191
2020-08-19 14:31:58 r, 00.00m,0000592071Hz,0000000000c,0000000.000s, 057.6C,00002191
2020-08-19 14:41:57 r, 00.00m,0000592132Hz,0000000000c,0000000.000s, 057.6C,00002191
2020-08-19 14:51:56 r, 00.00m,0000592091Hz,0000000000c,0000000.000s, 058.0C,00002191
2020-08-19 15:01:59 r, 00.00m,0000592066Hz,0000000000c,0000000.000s, 057.6C,00002191
2020-08-19 15:11:57 r, 00.00m,0000592177Hz,0000000000c,0000000.000s, 057.3C,00002191
2020-08-19 15:21:56 r, 00.00m,0000592111Hz,0000000000c,0000000.000s, 057.3C,00002191
2020-08-19 15:31:59 r, 00.00m,0000592058Hz,0000000000c,0000000.000s, 058.0C,00002191
2020-08-19 15:41:57 r, 00.00m,0000592334Hz,0000000000c,0000000.000s, 056.7C,00002191
2020-08-19 15:51:56 r, 00.00m,0000592397Hz,0000000000c,0000000.000s, 056.0C,00002191
2020-08-19 16:01:57 r, 00.00m,0000592377Hz,0000000000c,0000000.000s, 055.7C,00002191
2020-08-19 16:11:59 r, 00.00m,0000592437Hz,0000000000c,0000000.000s, 055.7C,00002191
2020-08-19 16:21:56 r, 00.00m,0000592446Hz,0000000000c,0000000.000s, 055.7C,00002191
2020-08-19 16:31:58 r, 00.00m,0000592624Hz,0000000000c,0000000.000s, 054.7C,00002191
2020-08-19 16:41:57 r, 00.00m,0000592692Hz,0000000000c,0000000.000s, 054.1C,00002191
2020-08-19 16:51:56 r, 00.00m,0000592762Hz,0000000000c,0000000.000s, 053.8C,00002191
2020-08-19 17:01:59 r, 00.00m,0000592896Hz,0000000000c,0000000.000s, 053.1C,00002191
2020-08-19 17:11:57 r, 00.00m,0000593021Hz,0000000000c,0000000.000s, 052.2C,00002191
2020-08-19 17:21:56 r, 00.00m,0000593181Hz,0000000000c,0000000.000s, 051.2C,00002191
2020-08-19 17:31:59 r, 00.00m,0000593353Hz,0000000000c,0000000.000s, 049.9C,00002191
2020-08-19 17:41:57 r, 00.00m,0000593580Hz,0000000000c,0000000.000s, 048.6C,00002191
2020-08-19 17:51:56 r, 00.00m,0000593900Hz,0000000000c,0000000.000s, 046.7C,00002191
2020-08-19 18:01:57 r, 00.00m,0000593843Hz,0000000000c,0000000.000s, 046.4C,00002191
2020-08-19 18:11:59 r, 00.00m,0000594007Hz,0000000000c,0000000.000s, 045.4C,00002191
2020-08-19 18:21:56 r, 00.00m,0000594207Hz,0000000000c,0000000.000s, 043.8C,00002191
2020-08-19 18:31:58 r, 00.00m,0000594460Hz,0000000000c,0000000.000s, 042.5C,00002191
2020-08-19 18:41:57 r, 00.00m,0000594494Hz,0000000000c,0000000.000s, 041.2C,00002191
2020-08-19 18:51:56 r, 00.00m,0000594631Hz,0000000000c,0000000.000s, 040.6C,00002191
2020-08-19 19:01:59 r, 00.00m,0000594665Hz,0000000000c,0000000.000s, 040.2C,00002191
2020-08-19 19:11:57 r, 00.00m,0000594768Hz,0000000000c,0000000.000s, 040.2C,00002191
2020-08-19 19:21:56 r, 00.00m,0000594742Hz,0000000000c,0000000.000s, 039.9C,00002191
2020-08-19 19:31:59 r, 00.00m,0000594802Hz,0000000000c,0000000.000s, 039.6C,00002191
2020-08-19 19:41:57 r, 00.00m,0000594970Hz,0000000000c,0000000.000s, 039.3C,00002191
2020-08-19 19:51:56 r, 06.34m,0000246000Hz,0000000000c,0000000.000s, 038.3C,00002191
2020-08-19 20:01:57 r, 06.67m,0000180610Hz,0000000000c,0000000.000s, 038.0C,00002191
2020-08-19 20:11:58 r, 06.44m,0000223647Hz,0000000000c,0000000.000s, 037.3C,00002191
2020-08-19 20:21:56 r, 07.05m,0000127566Hz,0000000000c,0000000.000s, 037.0C,00002191
2020-08-19 20:31:58 r, 08.02m,0000052298Hz,0000000000c,0000000.000s, 036.7C,00002191
2020-08-19 20:41:57 r, 09.35m,0000015379Hz,0000000000c,0000000.000s, 036.4C,00002191
2020-08-19 20:51:56 r, 10.54m,0000005180Hz,0000000000c,0000000.000s, 036.4C,00002191
2020-08-19 21:01:59 r, 12.32m,0000000993Hz,0000000000c,0000000.000s, 036.0C,00002191
2020-08-19 21:11:57 r, 15.07m,0000000080Hz,0000005831c,0000000.013s, 036.0C,00002191
2020-08-19 21:21:56 r, 15.84m,0000000039Hz,0000011882c,0000000.026s, 035.7C,00002191
2020-08-19 21:31:59 r, 17.19m,0000000011Hz,0000041057c,0000000.089s, 035.4C,00002191
2020-08-19 21:41:57 r, 18.23m,0000000004Hz,0000107472c,0000000.233s, 035.1C,00002191
2020-08-19 21:51:56 r, 18.90m,0000000002Hz,0000199291c,0000000.432s, 035.1C,00002191
2020-08-19 22:01:57 r, 19.37m,0000000002Hz,0000303504c,0000000.659s, 035.1C,00002191
2020-08-19 22:11:58 r, 19.36m,0000000002Hz,0000301222c,0000000.654s, 035.1C,00002191
2020-08-19 22:21:56 r, 19.18m,0000000002Hz,0000254482c,0000000.552s, 034.8C,00002191
2020-08-19 22:31:58 r, 19.58m,0000000001Hz,0000370413c,0000000.804s, 035.1C,00002191
2020-08-19 22:41:57 r, 18.76m,0000000001Hz,0000175825c,0000000.382s, 035.1C,00002191
2020-08-19 22:51:56 r, 19.50m,0000000002Hz,0000345626c,0000000.750s, 035.1C,00002191
2020-08-19 23:01:57 r, 19.48m,0000000002Hz,0000337909c,0000000.733s, 035.1C,00002191
2020-08-19 23:11:59 r, 19.47m,0000000002Hz,0000335227c,0000000.727s, 034.8C,00002191
2020-08-19 23:21:56 r, 19.46m,0000000001Hz,0000331012c,0000000.718s, 034.4C,00002191
2020-08-19 23:31:59 r, 19.13m,0000000003Hz,0000244741c,0000000.531s, 033.8C,00002191
2020-08-19 23:41:57 r, 19.09m,0000000003Hz,0000235079c,0000000.510s, 033.5C,00002191
2020-08-19 23:51:56 r, 18.94m,0000000002Hz,0000204547c,0000000.444s, 033.1C,00002191
